[[{"header":{"parameterUnit":"m.s-1","parameterCategory":2,"la1":30.2991,"la2":30.254,"lo1":-89.0895,"lo2":-89.0444,"dy":0.0017,"dx":0.0017,"nx":28,"ny":28,"refTime":"2025-12-11T09:00:00:Z","depth":"0","parameterNumber":2,"parameterNumberName":"U-component_of_CURRENTS"},"data":[0,0,0,0,0,0,0,0,0,0,0,0,0,0,0,0,0,0,0,0,0,0,0,0,0,0,0,0,0,0,0,0,0,0,0,0,0,0,0,0,0,0,0,0,0,0,0,0,0,0,0,0,0,0,0,0,0,0,0.1897,0.1899,0,0.1973,0.1973,0.1972,0.196,0.196,0.196,0.196,0.1915,0.1914,0.1913,0,0,0,0,0,0,0,0,0,0,0,0,0,0.1773,0.1774,0.1897,0.1899,0.1902,0.1973,0.1973,0.1972,0.196,0.196,0.196,0.196,0.1916,0.1914,0.1913,0,0,0,0,0,0,0,0,0,0,0,0,0,0.1821,0.1774,0.1897,0.1916,0.1919,0.1973,0.1973,0.1972,0.196,0.196,0.196,0.196,0.1916,0.1914,0.1912,0.1896,0,0,0.1906,0.1905,0,0,0,0,0,0,0,0,0.1818,0.1823,0.1911,0.1915,0.1919,0.1971,0.1914,0.1946,0.196,0.1928,0.196,0.1961,0.1933,0.1929,0.1923,0.1894,0.1892,0.1906,0.1905,0.1904,0.1903,0,0,0,0,0,0,0,0.1815,0.1821,0.1911,0.1913,0.1919,0.1933,0.1938,0.1919,0.1914,0.1931,0.1934,0.1967,0.1932,0.1925,0.1921,0.1892,0.1906,0.1904,0.1903,0.1902,0.1835,0.1834,0,0,0,0,0,0,0.1835,0.1817,0.1909,0.1915,0.1886,0.1936,0.1941,0.1941,0.1917,0.1919,0.1967,0.1967,0.1928,0.1924,0.192,0.1917,0.1904,0.1902,0.1901,0.1835,0.1835,0.1834,0,0,0,0,0,0,0.1832,0.1841,0.1906,0.1882,0.1894,0.1939,0.1939,0.1943,0.1952,0.1949,0.1945,0.1976,0.1928,0.1923,0.1906,0.1915,0.1901,0.19,0.1836,0.1835,0.1834,0.1901,0,0,0,0,0,0,0.1827,0.1838,0.1837,0.1883,0.1897,0.1946,0.1941,0.1945,0.1979,0.1979,0.1955,0.1951,0.1928,0.1909,0.1904,0.1912,0.1898,0.1837,0.1836,0.1835,0.19,0.1903,0.1905,0,0,0,0,0,0.1821,0.1803,0.1835,0.1848,0.1895,0.1948,0.1954,0.1977,0.198,0.1983,0.1963,0.1952,0.1898,0.1908,0.1902,0.1909,0.1837,0.1836,0.1835,0.1898,0.1902,0.1905,0,0,0,0,0,0,0.1735,0.1804,0.1839,0.184,0.1907,0.1952,0.1943,0.1987,0.1975,0.1945,0.195,0.1943,0.1939,0.1905,0.1916,0.1881,0.1863,0.1861,0.1914,0.1917,0.192,0.1887,0.1896,0,0,0,0,0,0.1727,0.1741,0.182,0.1832,0.1843,0.1901,0.1925,0.1945,0.1957,0.1952,0.1961,0.1935,0.1925,0.1907,0.1891,0.1868,0.1849,0.1863,0.1866,0.1869,0.1835,0.1847,0.1849,0.1829,0.1829,0.1829,0,0,0.168,0.1747,0.1738,0.1819,0.1842,0.1871,0.1907,0.1923,0.1948,0.1945,0.1948,0.1956,0.1925,0.1909,0.1901,0.1881,0.1866,0.1867,0.187,0.1834,0.1846,0.1848,0.185,0.1828,0.1829,0.1829,0,0,0.1624,0.166,0.1648,0.1716,0.1792,0.1831,0.1848,0.1903,0.1909,0.1931,0.1938,0.195,0.1931,0.1924,0.1912,0.1913,0.1895,0.1906,0.1879,0.1893,0.1896,0.1897,0.189,0.189,0.1891,0.1891,0.1891,0,0.1572,0.1601,0.1656,0.1698,0.175,0.1819,0.1832,0.1852,0.1911,0.1915,0.1925,0.1936,0.1933,0.1923,0.1921,0.1922,0.1912,0.1882,0.19,0.1901,0.1902,0.1894,0.1893,0.1894,0.1894,0.1894,0.1893,0,0.1515,0.1568,0.1564,0.1647,0.17,0.1721,0.1788,0.1813,0.1846,0.1886,0.1901,0.191,0.1915,0.193,0.1919,0.1923,0.1911,0.1925,0.1902,0.1908,0.1899,0.1897,0.1899,0.1897,0.1897,0.1896,0,0,0.1338,0.1486,0.1497,0.1549,0.1679,0.1702,0.174,0.1791,0.18,0.1848,0.1867,0.1879,0.1902,0.1886,0.1904,0.1905,0.1927,0.1902,0.1902,0.1909,0.1936,0.1942,0.194,0.1952,0.1951,0.1951,0.1934,0,0.1285,0.1352,0.145,0.1511,0.1539,0.1647,0.1693,0.1749,0.1788,0.182,0.1836,0.1854,0.1879,0.1885,0.1897,0.1922,0.1921,0.1927,0.1911,0.191,0.1928,0.1938,0.1965,0.1953,0.1932,0.1932,0.1932,0,0.1208,0.1283,0.1321,0.1473,0.1484,0.1526,0.1601,0.1648,0.1713,0.1743,0.1773,0.1808,0.1826,0.1847,0.1876,0.1878,0.1894,0.191,0.1911,0.188,0.1912,0.1937,0.195,0.2,0.1929,0.1929,0.1929,0,0.1072,0.1203,0.1232,0.1286,0.1437,0.1453,0.1515,0.1603,0.164,0.1682,0.1713,0.1752,0.1769,0.18,0.1846,0.186,0.1867,0.1903,0.1916,0.1916,0.1912,0.1912,0.1978,0.1905,0.1905,0.1905,0.1905,0,0.1011,0.1041,0.1162,0.1182,0.1217,0.1341,0.137,0.144,0.1529,0.1569,0.1648,0.168,0.1757,0.179,0.1824,0.1859,0.1857,0.1895,0.1911,0.1936,0.1939,0.1957,0.1972,0.1904,0.1905,0.1905,0.1905,0,0.0889,0.0969,0.1013,0.1129,0.1162,0.1172,0.1311,0.1342,0.1426,0.148,0.1497,0.1617,0.1677,0.1745,0.1796,0.1831,0.1877,0.187,0.1881,0.19,0.1976,0.1991,0.1974,0.1961,0.1891,0.1891,0.1891,0,0.0831,0.0841,0.0946,0.0976,0.1027,0.108,0.1143,0.1267,0.1321,0.1441,0.1463,0.1546,0.161,0.1692,0.1786,0.1848,0.1872,0.189,0.1929,0.1967,0.1998,0.1977,0.1965,0.1953,0.1953,0.1953,0.1954,0,0.0734,0.0768,0.081,0.089,0.0937,0.1009,0.1094,0.1124,0.1264,0.1317,0.1396,0.1444,0.1579,0.1689,0.1787,0.1834,0.1912,0.1901,0.1949,0.2044,0.2014,0.2015,0.1961,0.1958,0.1957,0.1957,0.1957,0.1957,0.0651,0.0675,0.075,0.0812,0.0882,0.0946,0.097,0.1061,0.1127,0.121,0.1289,0.1368,0.159,0.176,0.1825,0.1983,0.1939,0.2029,0.2041,0.2012,0.2011,0.1947,0.1963,0.1963,0.1963,0.1962,0.1962,0,0.0579,0.0636,0.0692,0.078,0.0839,0.0896,0.0965,0.0978,0.1019,0.112,0.1178,0.1404,0.1578,0.1787,0.2016,0.2106,0.2102,0.2149,0.2146,0.2124,0.2091,0.2108,0.2147,0.2147,0.2147,0.2147,0.2147,0.2147,0.055,0.059,0.0642,0.0724,0.0785,0.083,0.0844,0.0865,0.0927,0.104,0.1176,0.129,0.1629,0.2019,0.2236,0.2255,0.2243,0.2257,0.223,0.2258,0.2248,0.2239,0.2261,0.2332,0.2332,0.2252,0.2252,0.2252]},{"header":{"parameterUnit":"m.s-1","parameterCategory":2,"la1":30.2991,"la2":30.254,"lo1":-89.0895,"lo2":-89.0444,"dy":0.0017,"dx":0.0017,"nx":28,"ny":28,"refTime":"2025-12-11T09:00:00:Z","depth":"0","parameterNumber":3,"parameterNumberName":"V-component_of_CURRENTS"},"data":[0,0,0,0,0,0,0,0,0,0,0,0,0,0,0,0,0,0,0,0,0,0,0,0,0,0,0,0,0,0,0,0,0,0,0,0,0,0,0,0,0,0,0,0,0,0,0,0,0,0,0,0,0,0,0,0,0,0,-0.2158,-0.216,0,-0.2229,-0.2229,-0.2228,-0.2202,-0.2202,-0.2202,-0.2201,-0.2193,-0.2192,-0.2192,0,0,0,0,0,0,0,0,0,0,0,0,0,-0.2059,-0.206,-0.2157,-0.216,-0.2162,-0.2229,-0.2229,-0.2228,-0.2202,-0.2202,-0.2202,-0.2201,-0.2193,-0.2192,-0.2192,0,0,0,0,0,0,0,0,0,0,0,0,0,-0.2099,-0.206,-0.2157,-0.2168,-0.2171,-0.2229,-0.2229,-0.2228,-0.2202,-0.2202,-0.2202,-0.2201,-0.2193,-0.2193,-0.2192,-0.2198,0,0,-0.2192,-0.2192,0,0,0,0,0,0,0,0,-0.2096,-0.21,-0.2164,-0.2168,-0.2171,-0.222,-0.2192,-0.2219,-0.2202,-0.2174,-0.2201,-0.2201,-0.2205,-0.2203,-0.2197,-0.2198,-0.2197,-0.2192,-0.2192,-0.2192,-0.2192,0,0,0,0,0,0,0,-0.2094,-0.2098,-0.217,-0.2167,-0.2172,-0.2193,-0.2195,-0.2196,-0.2177,-0.2177,-0.2179,-0.2211,-0.2204,-0.2197,-0.2196,-0.2197,-0.2192,-0.2192,-0.2192,-0.2192,-0.2178,-0.2178,0,0,0,0,0,0,-0.2113,-0.2095,-0.2168,-0.2174,-0.215,-0.2195,-0.2198,-0.2192,-0.2179,-0.2181,-0.2212,-0.221,-0.2197,-0.2197,-0.2196,-0.2203,-0.2192,-0.2192,-0.2192,-0.2179,-0.2178,-0.2178,0,0,0,0,0,0,-0.211,-0.2117,-0.2166,-0.2151,-0.216,-0.2198,-0.2192,-0.2194,-0.2203,-0.2209,-0.2207,-0.2222,-0.2197,-0.2196,-0.2187,-0.2202,-0.2192,-0.2192,-0.2179,-0.2179,-0.2178,-0.2216,0,0,0,0,0,0,-0.2106,-0.2114,-0.2124,-0.2151,-0.2162,-0.221,-0.2194,-0.2196,-0.223,-0.2228,-0.2217,-0.2215,-0.2197,-0.2187,-0.2187,-0.2202,-0.2192,-0.218,-0.2179,-0.2178,-0.2215,-0.2217,-0.2218,0,0,0,0,0,-0.2101,-0.2102,-0.2122,-0.2133,-0.2169,-0.2213,-0.2218,-0.2235,-0.2231,-0.2238,-0.2215,-0.2216,-0.2184,-0.2187,-0.2187,-0.2202,-0.218,-0.2179,-0.2178,-0.2214,-0.2216,-0.2218,0,0,0,0,0,0,-0.2067,-0.2102,-0.2124,-0.2137,-0.2187,-0.2214,-0.2221,-0.2248,-0.2236,-0.2204,-0.2213,-0.2209,-0.221,-0.2196,-0.22,-0.2193,-0.2182,-0.2181,-0.2209,-0.2211,-0.2213,-0.2178,-0.2192,0,0,0,0,0,-0.2071,-0.2079,-0.2129,-0.2152,-0.2157,-0.2195,-0.2219,-0.222,-0.2224,-0.2218,-0.2235,-0.2217,-0.2206,-0.22,-0.219,-0.2188,-0.2177,-0.2195,-0.2197,-0.2198,-0.2167,-0.2196,-0.2198,-0.2176,-0.2176,-0.2176,0,0,-0.2048,-0.2097,-0.2087,-0.2148,-0.2164,-0.2176,-0.2201,-0.221,-0.2227,-0.2217,-0.2232,-0.2231,-0.2208,-0.22,-0.2199,-0.219,-0.2196,-0.2197,-0.2199,-0.2166,-0.2195,-0.2198,-0.22,-0.2175,-0.2175,-0.2175,0,0,-0.2021,-0.2057,-0.2039,-0.2086,-0.2137,-0.2161,-0.2174,-0.2204,-0.2213,-0.2232,-0.2223,-0.2228,-0.2234,-0.2219,-0.2209,-0.2213,-0.221,-0.2217,-0.2193,-0.2223,-0.2225,-0.2227,-0.2209,-0.2209,-0.2212,-0.2212,-0.2212,0,-0.2005,-0.2007,-0.205,-0.2071,-0.2109,-0.2157,-0.215,-0.2173,-0.2213,-0.2218,-0.2232,-0.2234,-0.2238,-0.2216,-0.2209,-0.222,-0.2213,-0.2195,-0.2227,-0.2228,-0.223,-0.2211,-0.221,-0.2213,-0.2213,-0.2213,-0.2213,0,-0.194,-0.1981,-0.1979,-0.202,-0.2065,-0.2069,-0.2118,-0.2148,-0.218,-0.2207,-0.2216,-0.222,-0.2219,-0.2234,-0.2218,-0.2223,-0.2207,-0.2238,-0.2228,-0.2235,-0.2213,-0.2212,-0.2216,-0.2215,-0.2215,-0.2214,0,0,-0.1823,-0.1905,-0.1921,-0.1944,-0.2033,-0.2048,-0.2087,-0.2124,-0.2136,-0.2177,-0.2192,-0.2193,-0.2203,-0.2188,-0.2194,-0.2206,-0.2226,-0.2214,-0.2215,-0.2202,-0.2251,-0.2225,-0.2221,-0.2271,-0.2271,-0.2271,-0.2231,0,-0.1768,-0.1794,-0.186,-0.1894,-0.1896,-0.1984,-0.2038,-0.2082,-0.2124,-0.2156,-0.2159,-0.2169,-0.2185,-0.2181,-0.22,-0.2219,-0.2224,-0.223,-0.2237,-0.2235,-0.222,-0.222,-0.2224,-0.2187,-0.223,-0.2229,-0.2229,0,-0.1696,-0.1733,-0.1731,-0.1845,-0.1848,-0.1873,-0.1948,-0.1992,-0.2053,-0.2091,-0.2101,-0.2123,-0.2125,-0.2156,-0.2179,-0.2182,-0.2204,-0.2221,-0.2222,-0.2175,-0.2207,-0.2186,-0.2183,-0.22,-0.2227,-0.2227,-0.2228,0,-0.1596,-0.1671,-0.1666,-0.1695,-0.1794,-0.1805,-0.1858,-0.1944,-0.1984,-0.2025,-0.2053,-0.2075,-0.2077,-0.2118,-0.2151,-0.2173,-0.2171,-0.2224,-0.2209,-0.2206,-0.2194,-0.219,-0.2211,-0.2239,-0.2239,-0.2239,-0.2239,0,-0.155,-0.1563,-0.1603,-0.1597,-0.1599,-0.1703,-0.1719,-0.1791,-0.1878,-0.1906,-0.1985,-0.1999,-0.2072,-0.2088,-0.2129,-0.2143,-0.2162,-0.218,-0.2197,-0.2204,-0.2202,-0.2203,-0.217,-0.2238,-0.2238,-0.2238,-0.2239,0,-0.1486,-0.1512,-0.1495,-0.1538,-0.1547,-0.1538,-0.164,-0.1678,-0.1769,-0.1804,-0.1818,-0.1927,-0.196,-0.2014,-0.2067,-0.2104,-0.2156,-0.2133,-0.2105,-0.2119,-0.214,-0.2107,-0.2173,-0.2247,-0.2121,-0.212,-0.2119,0,-0.1468,-0.144,-0.1415,-0.1402,-0.1413,-0.1427,-0.1474,-0.1592,-0.1644,-0.1751,-0.1764,-0.1815,-0.1837,-0.1894,-0.1993,-0.2045,-0.2107,-0.2071,-0.2127,-0.2115,-0.2093,-0.2183,-0.225,-0.212,-0.212,-0.2119,-0.2119,0,-0.1412,-0.1376,-0.1348,-0.1316,-0.1314,-0.1345,-0.1402,-0.1424,-0.156,-0.1587,-0.1631,-0.1643,-0.1748,-0.1809,-0.1899,-0.1962,-0.2113,-0.2061,-0.2081,-0.2097,-0.2165,-0.2253,-0.2138,-0.2114,-0.2115,-0.2115,-0.2115,-0.2115,-0.1347,-0.1314,-0.1262,-0.1236,-0.1246,-0.1273,-0.1266,-0.1334,-0.1362,-0.1384,-0.1441,-0.1423,-0.1597,-0.1743,-0.1857,-0.2028,-0.2081,-0.2074,-0.2032,-0.2126,-0.2207,-0.2045,-0.2029,-0.2029,-0.2029,-0.2029,-0.2029,0,-0.1269,-0.1251,-0.1222,-0.1177,-0.1181,-0.1208,-0.1244,-0.1226,-0.1197,-0.1212,-0.119,-0.1241,-0.1385,-0.1607,-0.1828,-0.1949,-0.2146,-0.2019,-0.2149,-0.2222,-0.2095,-0.2104,-0.2066,-0.2066,-0.2066,-0.2066,-0.2066,-0.2066,-0.1231,-0.1168,-0.1158,-0.1117,-0.1109,-0.1084,-0.1076,-0.1055,-0.1052,-0.0973,-0.0955,-0.0943,-0.1071,-0.1431,-0.1719,-0.1843,-0.204,-0.2089,-0.2168,-0.2035,-0.2039,-0.2043,-0.205,-0.2001,-0.2,-0.2412,-0.2414,-0.2416]}],[{"header":{"parameterUnit":"m.s-1","parameterCategory":2,"la1":30.2991,"la2":30.254,"lo1":-89.0895,"lo2":-89.0444,"dy":0.0017,"dx":0.0017,"nx":28,"ny":28,"refTime":"2025-12-11T09:00:00:Z","depth":"2","parameterNumber":2,"parameterNumberName":"U-component_of_CURRENTS"},"data":[0,0,0,0,0,0,0,0,0,0,0,0,0,0,0,0,0,0,0,0,0,0,0,0,0,0,0,0,0,0,0,0,0,0,0,0,0,0,0,0,0,0,0,0,0,0,0,0,0,0,0,0,0,0,0,0,0,0,-0.06,-0.06,0,-0.069,-0.0691,-0.0693,-0.0719,-0.0718,-0.0717,-0.0716,-0.0775,-0.0777,-0.078,0,0,0,0,0,0,0,0,0,0,0,0,0,-0.0561,-0.0561,-0.06,-0.06,-0.0601,-0.0689,-0.0691,-0.0693,-0.072,-0.0718,-0.0717,-0.0716,-0.0774,-0.0777,-0.078,0,0,0,0,0,0,0,0,0,0,0,0,0,-0.0613,-0.0561,-0.06,-0.062,-0.0622,-0.0689,-0.0691,-0.0694,-0.072,-0.0718,-0.0717,-0.0715,-0.0773,-0.0777,-0.078,-0.0836,0,0,-0.0792,-0.0794,0,0,0,0,0,0,0,0,-0.061,-0.0615,-0.0616,-0.0619,-0.0621,-0.0686,-0.0699,-0.0738,-0.072,-0.069,-0.0716,-0.0714,-0.0739,-0.0746,-0.0776,-0.0839,-0.0842,-0.0792,-0.0795,-0.0796,-0.0798,0,0,0,0,0,0,0,-0.0606,-0.0612,-0.0642,-0.0617,-0.062,-0.0661,-0.0667,-0.0707,-0.0727,-0.0692,-0.0693,-0.0693,-0.0741,-0.0772,-0.0777,-0.0842,-0.0792,-0.0796,-0.0798,-0.08,-0.0859,-0.0859,0,0,0,0,0,0,-0.0578,-0.0608,-0.0639,-0.0644,-0.0604,-0.0662,-0.0669,-0.0672,-0.0727,-0.0732,-0.0694,-0.0694,-0.0766,-0.0773,-0.0779,-0.0753,-0.0796,-0.08,-0.0802,-0.086,-0.0859,-0.0858,0,0,0,0,0,0,-0.0577,-0.058,-0.0635,-0.0623,-0.0632,-0.0663,-0.0668,-0.0675,-0.067,-0.0728,-0.0733,-0.0677,-0.0765,-0.0774,-0.0787,-0.0758,-0.0802,-0.0805,-0.0861,-0.086,-0.0859,-0.076,0,0,0,0,0,0,-0.0575,-0.0579,-0.0569,-0.0621,-0.0631,-0.0658,-0.0669,-0.0677,-0.0671,-0.0671,-0.0716,-0.0722,-0.0765,-0.0781,-0.079,-0.0764,-0.0808,-0.0862,-0.086,-0.0859,-0.0765,-0.0756,-0.0749,0,0,0,0,0,-0.0574,-0.0575,-0.0569,-0.0572,-0.0618,-0.0657,-0.0668,-0.069,-0.0671,-0.0678,-0.0695,-0.0718,-0.0779,-0.0784,-0.0795,-0.0769,-0.0862,-0.0861,-0.0859,-0.0768,-0.0758,-0.0749,0,0,0,0,0,0,-0.0559,-0.0578,-0.0573,-0.0579,-0.0602,-0.0659,-0.0663,-0.0667,-0.069,-0.067,-0.0719,-0.0728,-0.0729,-0.0765,-0.0769,-0.0783,-0.0821,-0.0822,-0.0748,-0.0739,-0.0731,-0.071,-0.0811,0,0,0,0,0,-0.0547,-0.0547,-0.0574,-0.0576,-0.058,-0.061,-0.0623,-0.0628,-0.0655,-0.0661,-0.0691,-0.0716,-0.0742,-0.0748,-0.0786,-0.0797,-0.0803,-0.0785,-0.0777,-0.077,-0.0761,-0.0763,-0.0754,-0.0853,-0.0853,-0.0853,0,0,-0.054,-0.055,-0.0548,-0.0571,-0.0588,-0.0602,-0.0615,-0.0617,-0.0623,-0.0664,-0.0675,-0.0693,-0.0739,-0.0751,-0.0754,-0.077,-0.0737,-0.0768,-0.0762,-0.0757,-0.076,-0.075,-0.0741,-0.0852,-0.0852,-0.0852,0,0,-0.0536,-0.0531,-0.053,-0.0538,-0.0544,-0.0574,-0.0559,-0.0588,-0.0593,-0.0606,-0.0627,-0.0625,-0.0675,-0.07,-0.0719,-0.0692,-0.0699,-0.0689,-0.0628,-0.0629,-0.062,-0.0613,-0.0567,-0.0557,-0.0681,-0.068,-0.068,0,-0.0525,-0.0514,-0.0537,-0.0535,-0.0527,-0.055,-0.0538,-0.0569,-0.0596,-0.0586,-0.0591,-0.0622,-0.0658,-0.066,-0.0643,-0.0674,-0.0652,-0.0657,-0.0617,-0.061,-0.0604,-0.056,-0.0549,-0.0675,-0.0676,-0.0676,-0.0677,0,-0.0515,-0.0497,-0.0495,-0.0498,-0.0509,-0.0493,-0.0524,-0.0525,-0.052,-0.0538,-0.0522,-0.0565,-0.0569,-0.058,-0.0602,-0.0569,-0.0556,-0.0607,-0.0635,-0.0588,-0.0544,-0.0535,-0.0668,-0.067,-0.0672,-0.0673,0,0,-0.0491,-0.0488,-0.0478,-0.0448,-0.0464,-0.0466,-0.0478,-0.0485,-0.0459,-0.0484,-0.0448,-0.0485,-0.0468,-0.0486,-0.0503,-0.0502,-0.0431,-0.0514,-0.0517,-0.0456,-0.0376,-0.0255,-0.0234,-0.0461,-0.046,-0.0459,-0.0346,0,-0.0457,-0.0427,-0.0449,-0.0409,-0.0377,-0.0399,-0.0412,-0.0419,-0.0423,-0.0407,-0.0425,-0.041,-0.0447,-0.0411,-0.0416,-0.0436,-0.0408,-0.0454,-0.0442,-0.0441,-0.033,-0.0221,-0.0306,-0.0203,-0.0338,-0.0336,-0.0335,0,-0.0415,-0.0388,-0.034,-0.0312,-0.0303,-0.0308,-0.0278,-0.0286,-0.0295,-0.0288,-0.0271,-0.0285,-0.0268,-0.0313,-0.0304,-0.0319,-0.0322,-0.0346,-0.0344,-0.0261,-0.0303,-0.0282,-0.0182,-0.0321,-0.0322,-0.0323,-0.0324,0,-0.0337,-0.0305,-0.0251,-0.0235,-0.023,-0.0214,-0.0222,-0.0231,-0.0215,-0.0191,-0.0162,-0.0164,-0.0136,-0.0164,-0.0184,-0.023,-0.017,-0.0256,-0.0149,-0.014,-0.0226,-0.0225,-0.0238,-0.0238,-0.0238,-0.0238,-0.0239,0,-0.0274,-0.023,-0.02,-0.0166,-0.0111,-0.0122,-0.0073,-0.0094,-0.0076,-0.0046,-0.0072,-0.0033,-0.0095,-0.0076,-0.0122,-0.0063,-0.0113,-0.0092,-0.0092,-0.0187,-0.0184,-0.0323,-0.0335,-0.0234,-0.0235,-0.0236,-0.0237,0,-0.0221,-0.0194,-0.0122,-0.0081,-0.0075,-0.0027,-0.0016,0.0026,0.0033,0.0077,0.0096,0.0095,0.0133,0.0089,0.0067,0.0053,0.0056,0.0082,0.0017,0.001,0.007,0.0062,0.0218,0.0224,0.0228,0.0232,0.0236,0,-0.0212,-0.0158,-0.0071,-0.0034,-0.0024,0.0037,0.0066,0.0078,0.0114,0.0153,0.018,0.0241,0.0237,0.0295,0.0295,0.0296,0.0217,0.0259,0.0148,0.0139,0.0121,0.0106,0.0092,0.007,0.0071,0.0073,0.0074,0,-0.0186,-0.0135,-0.0087,-0.0004,0.005,0.0107,0.0143,0.0173,0.0204,0.0226,0.0262,0.0261,0.0349,0.034,0.0406,0.0369,0.0252,0.0296,0.0284,-0.0006,0.0015,-0.0007,-0.002,0.0086,0.0084,0.0084,0.0083,0.0082,-0.0181,-0.014,-0.0059,0.0004,0.0068,0.0126,0.0132,0.018,0.0212,0.0197,0.0252,0.0234,0.0264,0.0328,0.0356,0.0423,0.0421,0.0339,0.0326,0.0314,0.0304,0.0334,0.0464,0.0465,0.0466,0.0467,0.0467,0,-0.0187,-0.014,-0.0074,-0.0002,0.0034,0.0089,0.0141,0.0118,0.0112,0.0176,0.0157,0.013,0.0148,0.0227,0.0353,0.0412,0.0298,0.0382,0.019,0.0181,0.0172,0.0145,0.0268,0.0268,0.0268,0.0267,0,0,-0.0181,-0.0125,-0.009,-0.0051,-0.0023,-0.0,0.0008,-0.0008,0.0012,0.0012,0.0052,0.0022,0.0144,0.0155,0.0199,0.0267,0.0194,0.0242,0.0393,0.0149,0.0139,0.0141,0.0092,0,0,0,0,0]},{"header":{"parameterUnit":"m.s-1","parameterCategory":2,"la1":30.2991,"la2":30.254,"lo1":-89.0895,"lo2":-89.0444,"dy":0.0017,"dx":0.0017,"nx":28,"ny":28,"refTime":"2025-12-11T09:00:00:Z","depth":"2","parameterNumber":3,"parameterNumberName":"V-component_of_CURRENTS"},"data":[0,0,0,0,0,0,0,0,0,0,0,0,0,0,0,0,0,0,0,0,0,0,0,0,0,0,0,0,0,0,0,0,0,0,0,0,0,0,0,0,0,0,0,0,0,0,0,0,0,0,0,0,0,0,0,0,0,0,0.07,0.07,0,0.0675,0.0674,0.0674,0.0639,0.0638,0.0638,0.0637,0.0601,0.0601,0.0601,0,0,0,0,0,0,0,0,0,0,0,0,0,0.0774,0.0773,0.07,0.07,0.0699,0.0675,0.0674,0.0674,0.0639,0.0638,0.0638,0.0637,0.0601,0.0601,0.06,0,0,0,0,0,0,0,0,0,0,0,0,0,0.0745,0.0772,0.07,0.0678,0.0676,0.0675,0.0674,0.0674,0.0639,0.0638,0.0637,0.0636,0.0601,0.0601,0.06,0.0617,0,0,0.0599,0.0599,0,0,0,0,0,0,0,0,0.0747,0.0743,0.0682,0.068,0.0677,0.0658,0.0687,0.0654,0.064,0.0654,0.0637,0.0636,0.062,0.0617,0.0616,0.0616,0.0614,0.0599,0.0599,0.0598,0.0598,0,0,0,0,0,0,0,0.0749,0.0744,0.0691,0.0682,0.0679,0.0689,0.0683,0.0681,0.0643,0.0653,0.065,0.0646,0.0618,0.0617,0.0615,0.0614,0.0599,0.0598,0.0598,0.0598,0.0586,0.0586,0,0,0,0,0,0,0.0748,0.0746,0.0692,0.069,0.071,0.0688,0.0682,0.0666,0.0643,0.0639,0.0647,0.0645,0.0618,0.0616,0.0614,0.0592,0.0598,0.0598,0.0598,0.0586,0.0586,0.0586,0,0,0,0,0,0,0.075,0.0743,0.0693,0.0718,0.0712,0.0687,0.067,0.0666,0.0649,0.0639,0.0634,0.0633,0.0617,0.0614,0.0595,0.0592,0.0598,0.0597,0.0586,0.0586,0.0586,0.0574,0,0,0,0,0,0,0.0752,0.0744,0.0735,0.0717,0.071,0.0687,0.0671,0.0666,0.0649,0.0645,0.0626,0.0622,0.0616,0.0596,0.0595,0.0591,0.0597,0.0586,0.0586,0.0586,0.0575,0.0574,0.0573,0,0,0,0,0,0.0755,0.0751,0.0735,0.0729,0.0697,0.0687,0.0684,0.0665,0.0649,0.0646,0.0624,0.0622,0.0595,0.0595,0.0594,0.059,0.0586,0.0586,0.0586,0.0575,0.0574,0.0573,0,0,0,0,0,0,0.0782,0.0746,0.0728,0.0713,0.0697,0.068,0.0679,0.066,0.0642,0.0635,0.0618,0.0614,0.0596,0.0597,0.0598,0.0588,0.0592,0.0592,0.0584,0.0583,0.0582,0.0568,0.0596,0,0,0,0,0,0.0783,0.0766,0.0738,0.0726,0.0718,0.0695,0.0688,0.0672,0.0653,0.0643,0.0628,0.0613,0.06,0.0593,0.0585,0.058,0.057,0.0579,0.0578,0.0577,0.0565,0.055,0.0547,0.0586,0.0586,0.0586,0,0,0.0792,0.077,0.0761,0.0731,0.0718,0.0708,0.0688,0.0676,0.0659,0.0644,0.062,0.0609,0.0597,0.0586,0.058,0.0583,0.0561,0.0577,0.0576,0.0564,0.055,0.0546,0.0542,0.0586,0.0586,0.0586,0,0,0.0804,0.078,0.0769,0.0758,0.0733,0.0718,0.071,0.0685,0.0664,0.0646,0.0624,0.0605,0.0596,0.0579,0.057,0.0563,0.0555,0.0567,0.0552,0.0538,0.0534,0.0531,0.0512,0.0507,0.0569,0.0569,0.0569,0,0.0817,0.0787,0.0768,0.076,0.0749,0.072,0.0709,0.069,0.066,0.0637,0.0639,0.0599,0.0592,0.0559,0.0554,0.056,0.0548,0.0555,0.0536,0.0532,0.0529,0.051,0.0505,0.0568,0.0568,0.0569,0.0569,0,0.0814,0.0796,0.0794,0.0764,0.0758,0.0744,0.0717,0.0695,0.067,0.0644,0.0605,0.0592,0.0564,0.0565,0.0556,0.0525,0.0522,0.0534,0.0536,0.0524,0.0505,0.05,0.0568,0.0568,0.0568,0.0568,0,0,0.0803,0.0792,0.0788,0.0773,0.0753,0.0743,0.0721,0.0679,0.0644,0.0625,0.0582,0.0561,0.054,0.0529,0.0515,0.0504,0.0473,0.0505,0.0505,0.0481,0.0433,0.0418,0.0411,0.048,0.0479,0.0478,0.0428,0,0.0792,0.0764,0.078,0.0763,0.0727,0.0729,0.071,0.0676,0.0639,0.0596,0.0566,0.0532,0.053,0.0513,0.0496,0.0474,0.0457,0.0484,0.0451,0.045,0.0434,0.0404,0.0414,0.0369,0.0423,0.0422,0.0421,0,0.0745,0.0731,0.0698,0.071,0.0706,0.0724,0.0675,0.0661,0.0603,0.0572,0.053,0.0502,0.0461,0.0476,0.0425,0.044,0.0429,0.0422,0.042,0.0404,0.0425,0.039,0.0357,0.0412,0.0413,0.0414,0.0414,0,0.0652,0.067,0.0634,0.0633,0.0642,0.0662,0.0691,0.0647,0.0622,0.0558,0.0527,0.0471,0.0447,0.0421,0.0387,0.0406,0.0338,0.037,0.0345,0.0344,0.0343,0.0343,0.0338,0.0338,0.0338,0.0338,0.0339,0,0.0591,0.0564,0.06,0.0582,0.0603,0.0619,0.0632,0.0636,0.0599,0.057,0.0517,0.0486,0.0434,0.0385,0.0367,0.0321,0.032,0.0323,0.0324,0.034,0.034,0.0374,0.0379,0.0337,0.0337,0.0337,0.0338,0,0.0486,0.0484,0.0474,0.0522,0.0553,0.0578,0.0674,0.067,0.0615,0.0577,0.0558,0.0486,0.0431,0.0365,0.0317,0.0297,0.026,0.0249,0.0261,0.0264,0.0284,0.0289,0.0223,0.0222,0.0221,0.022,0.0219,0,0.0444,0.0392,0.0454,0.0517,0.0574,0.0625,0.0673,0.0678,0.0672,0.059,0.0576,0.0493,0.0475,0.0372,0.0296,0.0231,0.0232,0.0194,0.0238,0.0262,0.0269,0.0276,0.0282,0.0234,0.0233,0.0233,0.0232,0,0.0399,0.0397,0.0427,0.0527,0.0622,0.0697,0.0772,0.0751,0.0716,0.0676,0.0641,0.0624,0.0501,0.0422,0.0289,0.0267,0.0202,0.0186,0.0195,0.0263,0.0269,0.0278,0.0284,0.0229,0.0229,0.023,0.023,0.023,0.0409,0.0451,0.0503,0.0618,0.0698,0.0782,0.0836,0.0853,0.0844,0.0739,0.0715,0.0632,0.0442,0.0277,0.0225,0.0183,0.021,0.0183,0.0186,0.0189,0.02,0.0204,0.0154,0.0154,0.0154,0.0154,0.0154,0,0.0496,0.053,0.0627,0.0768,0.0862,0.0871,0.0907,0.0878,0.0874,0.0766,0.0717,0.0482,0.0394,0.0246,0.0201,0.0163,0.0191,0.0142,0.0174,0.0178,0.0181,0.0194,0.0145,0.0145,0.0144,0.0144,0,0,0.057,0.066,0.0719,0.0905,0.0969,0.1016,0.1022,0.0923,0.0821,0.0702,0.0603,0.0417,0.0299,0.0181,0.0138,0.0172,0.0195,0.0181,0.0196,0.0245,0.0249,0.0213,0.0238,0,0,0,0,0]}],[{"header":{"parameterUnit":"m.s-1","parameterCategory":2,"la1":30.2991,"la2":30.254,"lo1":-89.0895,"lo2":-89.0444,"dy":0.0017,"dx":0.0017,"nx":28,"ny":28,"refTime":"2025-12-11T09:00:00:Z","depth":"4","parameterNumber":2,"parameterNumberName":"U-component_of_CURRENTS"},"data":[0,0,0,0,0,0,0,0,0,0,0,0,0,0,0,0,0,0,0,0,0,0,0,0,0,0,0,0,0,0,0,0,0,0,0,0,0,0,0,0,0,0,0,0,0,0,0,0,0,0,0,0,0,0,0,0,0,0,-0.0399,-0.04,0,-0.0408,-0.0408,-0.0408,-0.0428,-0.0429,-0.043,-0.0431,-0.0564,-0.0566,-0.0569,0,0,0,0,0,0,0,0,0,0,0,0,0,-0.0343,-0.0343,-0.0399,-0.04,-0.0401,-0.0409,-0.0408,-0.0408,-0.0428,-0.0429,-0.0431,-0.0432,-0.0563,-0.0566,-0.0569,0,0,0,0,0,0,0,0,0,0,0,0,0,-0.0355,-0.0344,-0.0399,-0.0417,-0.0419,-0.0409,-0.0408,-0.0407,-0.0428,-0.0429,-0.0431,-0.0432,-0.0562,-0.0566,-0.057,-0.0563,0,0,-0.0582,-0.0583,0,0,0,0,0,0,0,0,-0.0354,-0.0356,-0.0413,-0.0416,-0.0418,-0.0425,-0.0437,-0.0468,-0.0428,-0.0418,-0.0431,-0.0433,-0.0532,-0.0538,-0.0526,-0.0569,-0.0575,-0.0582,-0.0584,-0.0586,-0.0587,0,0,0,0,0,0,0,-0.0353,-0.0356,-0.0396,-0.0414,-0.0417,-0.0405,-0.0408,-0.0442,-0.0463,-0.0419,-0.0422,-0.0433,-0.0533,-0.0522,-0.0529,-0.0577,-0.0582,-0.0585,-0.0588,-0.0589,-0.0729,-0.0731,0,0,0,0,0,0,-0.0367,-0.0355,-0.0396,-0.0397,-0.0397,-0.0406,-0.0409,-0.0416,-0.046,-0.0469,-0.0431,-0.0434,-0.0514,-0.0525,-0.0534,-0.0657,-0.0586,-0.0589,-0.0592,-0.0728,-0.073,-0.0731,0,0,0,0,0,0,-0.0365,-0.037,-0.0396,-0.0382,-0.0385,-0.0406,-0.0413,-0.0415,-0.0441,-0.047,-0.048,-0.046,-0.0516,-0.0529,-0.0615,-0.0658,-0.0591,-0.0595,-0.0726,-0.0728,-0.073,-0.0821,0,0,0,0,0,0,-0.0363,-0.0369,-0.0365,-0.0383,-0.0387,-0.0408,-0.0412,-0.0414,-0.0446,-0.045,-0.0498,-0.0509,-0.0518,-0.061,-0.0619,-0.0662,-0.0598,-0.0724,-0.0727,-0.073,-0.0816,-0.0826,-0.0834,0,0,0,0,0,-0.0361,-0.0369,-0.0365,-0.037,-0.0385,-0.0409,-0.041,-0.0425,-0.0447,-0.0454,-0.0512,-0.0509,-0.0632,-0.0615,-0.0625,-0.067,-0.0723,-0.0726,-0.073,-0.0812,-0.0824,-0.0834,0,0,0,0,0,0,-0.0348,-0.0372,-0.0369,-0.0383,-0.0399,-0.0416,-0.0425,-0.0444,-0.0488,-0.0512,-0.0541,-0.0556,-0.064,-0.0641,-0.0621,-0.0714,-0.0671,-0.0677,-0.073,-0.0742,-0.0751,-0.0708,-0.0601,0,0,0,0,0,-0.034,-0.035,-0.0371,-0.0382,-0.0394,-0.0413,-0.0424,-0.0446,-0.0491,-0.0511,-0.0548,-0.0596,-0.065,-0.069,-0.0719,-0.0783,-0.0747,-0.0812,-0.0821,-0.0829,-0.08,-0.0803,-0.081,-0.0742,-0.0742,-0.0741,0,0,-0.0335,-0.0354,-0.0356,-0.0379,-0.0392,-0.0403,-0.0423,-0.0463,-0.0485,-0.0523,-0.0576,-0.0632,-0.0673,-0.0743,-0.0779,-0.0761,-0.0831,-0.0833,-0.084,-0.0805,-0.0807,-0.0814,-0.0819,-0.0744,-0.0743,-0.0743,0,0,-0.0339,-0.0352,-0.0357,-0.0381,-0.0419,-0.0421,-0.0444,-0.0482,-0.0512,-0.0586,-0.0616,-0.0682,-0.0774,-0.0788,-0.0817,-0.0886,-0.0876,-0.0929,-0.0952,-0.0958,-0.0963,-0.0967,-0.0935,-0.0935,-0.0939,-0.0939,-0.0939,0,-0.033,-0.0341,-0.0363,-0.0387,-0.0405,-0.0435,-0.0452,-0.0479,-0.0544,-0.0582,-0.062,-0.0736,-0.0774,-0.0839,-0.0883,-0.0902,-0.0913,-0.0916,-0.0969,-0.0972,-0.0975,-0.094,-0.094,-0.0944,-0.0943,-0.0943,-0.0942,0,-0.0335,-0.0352,-0.037,-0.0391,-0.0409,-0.0442,-0.0481,-0.0506,-0.0564,-0.0612,-0.0711,-0.0767,-0.0833,-0.0871,-0.092,-0.0969,-0.0973,-0.0979,-0.0941,-0.0987,-0.0948,-0.0946,-0.095,-0.0949,-0.0947,-0.0946,0,0,-0.031,-0.0354,-0.0364,-0.0379,-0.0425,-0.0446,-0.0473,-0.0513,-0.0551,-0.064,-0.069,-0.0806,-0.0863,-0.0894,-0.0948,-0.0969,-0.1013,-0.1015,-0.1013,-0.0979,-0.1033,-0.0885,-0.0867,-0.1073,-0.1073,-0.1073,-0.1001,0,-0.0305,-0.0332,-0.0357,-0.0387,-0.0406,-0.044,-0.0463,-0.0519,-0.0582,-0.0637,-0.0717,-0.0813,-0.0868,-0.0942,-0.0967,-0.1015,-0.1013,-0.103,-0.0994,-0.099,-0.0851,-0.086,-0.1073,-0.0999,-0.0998,-0.0998,-0.0997,0,-0.0305,-0.0325,-0.0349,-0.0393,-0.0406,-0.0437,-0.0475,-0.0511,-0.0589,-0.0663,-0.075,-0.0822,-0.0894,-0.0925,-0.0976,-0.1015,-0.1023,-0.1032,-0.1029,-0.0845,-0.0836,-0.094,-0.0992,-0.0992,-0.0992,-0.0993,-0.0993,0,-0.0289,-0.0326,-0.034,-0.0364,-0.0411,-0.0445,-0.0475,-0.0545,-0.0581,-0.07,-0.0744,-0.0839,-0.0893,-0.0933,-0.0944,-0.1014,-0.0939,-0.1021,-0.0858,-0.0848,-0.0965,-0.0961,-0.0996,-0.0996,-0.0996,-0.0996,-0.0996,0,-0.0284,-0.0307,-0.035,-0.0382,-0.0401,-0.0467,-0.0517,-0.0559,-0.0632,-0.0655,-0.0784,-0.0764,-0.0914,-0.0882,-0.0912,-0.0837,-0.0903,-0.083,-0.0813,-0.1006,-0.1008,-0.0962,-0.096,-0.0993,-0.0994,-0.0994,-0.0995,0,-0.0278,-0.0299,-0.0328,-0.0388,-0.0407,-0.0442,-0.0522,-0.0548,-0.0649,-0.0659,-0.0706,-0.0749,-0.0733,-0.0763,-0.0779,-0.0767,-0.0722,-0.0654,-0.079,-0.0787,-0.0652,-0.0655,-0.0545,-0.0539,-0.0534,-0.053,-0.0526,0,-0.0272,-0.0295,-0.0333,-0.0329,-0.037,-0.0431,-0.0453,-0.0555,-0.0556,-0.0585,-0.0542,-0.0562,-0.0573,-0.0457,-0.051,-0.0506,-0.05,-0.0487,-0.0645,-0.0607,-0.0604,-0.0615,-0.0625,-0.0518,-0.0517,-0.0516,-0.0514,0,-0.0271,-0.0293,-0.0302,-0.0301,-0.0326,-0.0324,-0.0362,-0.0368,-0.0435,-0.0502,-0.0411,-0.0409,-0.0334,-0.0352,-0.0318,-0.0313,-0.0532,-0.0436,-0.0451,-0.0601,-0.0574,-0.0578,-0.0593,-0.0497,-0.0499,-0.0501,-0.0502,0,-0.0267,-0.0249,-0.0263,-0.0256,-0.0248,-0.0218,-0.0259,-0.0244,-0.0269,-0.0313,-0.023,-0.024,-0.0266,-0.0233,-0.017,-0.0183,-0.0255,-0.0316,-0.034,-0.0359,-0.0334,-0.0275,-0.0063,0,0,0,0,0,-0.0256,-0.0227,-0.0213,-0.0184,-0.0168,-0.017,-0.0169,-0.0206,-0.025,-0.0171,-0.0228,-0.015,-0.0132,-0.0099,-0.0092,-0.0106,-0.0256,-0.0095,-0.0339,-0.0399,-0.042,-0.0409,0,0,0,0,0,0,-0.0236,-0.0218,-0.0201,-0.0131,-0.0102,-0.0079,-0.0083,-0.0109,-0.0064,-0.0111,-0.0085,-0.013,-0.0095,-0.0139,-0.0084,-0.0085,-0.0234,-0.0101,-0.01,-0.0388,-0.0406,-0.0423,-0.0419,0,0,0,0,0]},{"header":{"parameterUnit":"m.s-1","parameterCategory":2,"la1":30.2991,"la2":30.254,"lo1":-89.0895,"lo2":-89.0444,"dy":0.0017,"dx":0.0017,"nx":28,"ny":28,"refTime":"2025-12-11T09:00:00:Z","depth":"4","parameterNumber":3,"parameterNumberName":"V-component_of_CURRENTS"},"data":[0,0,0,0,0,0,0,0,0,0,0,0,0,0,0,0,0,0,0,0,0,0,0,0,0,0,0,0,0,0,0,0,0,0,0,0,0,0,0,0,0,0,0,0,0,0,0,0,0,0,0,0,0,0,0,0,0,0,-0.0286,-0.0286,0,-0.0313,-0.0314,-0.0314,-0.0294,-0.0293,-0.0292,-0.0291,-0.0277,-0.0277,-0.0278,0,0,0,0,0,0,0,0,0,0,0,0,0,-0.0236,-0.0237,-0.0286,-0.0286,-0.0286,-0.0313,-0.0314,-0.0314,-0.0294,-0.0293,-0.0291,-0.029,-0.0277,-0.0277,-0.0278,0,0,0,0,0,0,0,0,0,0,0,0,0,-0.0262,-0.0237,-0.0286,-0.0278,-0.0277,-0.0313,-0.0314,-0.0314,-0.0294,-0.0293,-0.0291,-0.029,-0.0276,-0.0277,-0.0278,-0.0317,0,0,-0.0281,-0.0282,0,0,0,0,0,0,0,0,-0.026,-0.0264,-0.0279,-0.0278,-0.0278,-0.0296,-0.0291,-0.0312,-0.0295,-0.029,-0.0291,-0.0289,-0.0279,-0.028,-0.0293,-0.0316,-0.0316,-0.0281,-0.0282,-0.0282,-0.0283,0,0,0,0,0,0,0,-0.0259,-0.0263,-0.0299,-0.0279,-0.0278,-0.0279,-0.0281,-0.0295,-0.0295,-0.0291,-0.0289,-0.0289,-0.0279,-0.0292,-0.0292,-0.0316,-0.0281,-0.0282,-0.0283,-0.0283,-0.0386,-0.0388,0,0,0,0,0,0,-0.0252,-0.0261,-0.0298,-0.03,-0.0262,-0.0281,-0.0283,-0.0294,-0.0295,-0.0294,-0.029,-0.0287,-0.0291,-0.0291,-0.0291,-0.0335,-0.0282,-0.0283,-0.0284,-0.0384,-0.0387,-0.0389,0,0,0,0,0,0,-0.0251,-0.0255,-0.0297,-0.0278,-0.0283,-0.0283,-0.0296,-0.0295,-0.0311,-0.0295,-0.0292,-0.0305,-0.029,-0.029,-0.0315,-0.0334,-0.0284,-0.0285,-0.0382,-0.0385,-0.0388,-0.0423,0,0,0,0,0,0,-0.025,-0.0255,-0.0266,-0.0278,-0.0284,-0.0325,-0.0297,-0.0297,-0.0312,-0.0309,-0.0308,-0.0304,-0.0288,-0.0314,-0.0316,-0.0334,-0.0285,-0.0379,-0.0383,-0.0387,-0.0419,-0.0427,-0.0433,0,0,0,0,0,-0.0248,-0.0268,-0.0267,-0.0271,-0.0297,-0.0326,-0.033,-0.0325,-0.0315,-0.0332,-0.0332,-0.0305,-0.0341,-0.0316,-0.0318,-0.0337,-0.0377,-0.0382,-0.0387,-0.0416,-0.0425,-0.0433,0,0,0,0,0,0,-0.0256,-0.0268,-0.0267,-0.029,-0.0309,-0.0321,-0.0335,-0.0337,-0.0354,-0.0354,-0.0333,-0.0331,-0.0364,-0.0356,-0.033,-0.0383,-0.0355,-0.0361,-0.0377,-0.0386,-0.0393,-0.0365,-0.0286,0,0,0,0,0,-0.0263,-0.0277,-0.0293,-0.0313,-0.0324,-0.0335,-0.0347,-0.0353,-0.0365,-0.0371,-0.0376,-0.0382,-0.0389,-0.0389,-0.0406,-0.0433,-0.0405,-0.045,-0.0457,-0.0463,-0.0446,-0.0435,-0.0438,-0.0405,-0.0405,-0.0405,0,0,-0.0269,-0.0278,-0.0286,-0.0315,-0.0328,-0.0351,-0.0339,-0.037,-0.0392,-0.0368,-0.0409,-0.0416,-0.0407,-0.0437,-0.045,-0.0427,-0.0462,-0.0469,-0.0474,-0.0453,-0.044,-0.0442,-0.0445,-0.0408,-0.0408,-0.0407,0,0,-0.0286,-0.0303,-0.0318,-0.0337,-0.0364,-0.0377,-0.0389,-0.0423,-0.0438,-0.0485,-0.0467,-0.0485,-0.0515,-0.0502,-0.0496,-0.0559,-0.051,-0.0571,-0.057,-0.0561,-0.0562,-0.0563,-0.0536,-0.0534,-0.0563,-0.0563,-0.0563,0,-0.029,-0.0311,-0.0329,-0.0351,-0.0367,-0.0389,-0.0415,-0.0441,-0.0483,-0.0496,-0.0506,-0.054,-0.0542,-0.0536,-0.0554,-0.0571,-0.0547,-0.053,-0.0566,-0.0566,-0.0566,-0.0538,-0.0536,-0.0565,-0.0565,-0.0565,-0.0564,0,-0.0313,-0.0334,-0.0349,-0.0378,-0.0408,-0.0436,-0.0472,-0.0508,-0.0537,-0.0557,-0.0593,-0.0603,-0.0606,-0.0622,-0.0601,-0.0602,-0.0579,-0.0582,-0.0532,-0.057,-0.054,-0.0537,-0.0568,-0.0567,-0.0567,-0.0566,0,0,-0.03,-0.0351,-0.0354,-0.0378,-0.0424,-0.0457,-0.0496,-0.0533,-0.0555,-0.0604,-0.0623,-0.0645,-0.0643,-0.0636,-0.0621,-0.0608,-0.0599,-0.0587,-0.0585,-0.0539,-0.0556,-0.0529,-0.0522,-0.0598,-0.0598,-0.0597,-0.0535,0,-0.0304,-0.0345,-0.0373,-0.0424,-0.0451,-0.0487,-0.0521,-0.0564,-0.0603,-0.0636,-0.0639,-0.0663,-0.0648,-0.065,-0.0634,-0.0614,-0.059,-0.0614,-0.0543,-0.054,-0.0494,-0.0518,-0.0596,-0.0532,-0.0531,-0.0531,-0.053,0,-0.0309,-0.0336,-0.0384,-0.0446,-0.0462,-0.0507,-0.0564,-0.0599,-0.0635,-0.0661,-0.0668,-0.0672,-0.0653,-0.0651,-0.0601,-0.0612,-0.0578,-0.056,-0.0558,-0.051,-0.0507,-0.0487,-0.0523,-0.0523,-0.0524,-0.0525,-0.0525,0,-0.029,-0.0346,-0.0387,-0.0408,-0.048,-0.052,-0.0561,-0.0612,-0.064,-0.0673,-0.0687,-0.0673,-0.0667,-0.063,-0.0589,-0.059,-0.0536,-0.054,-0.0477,-0.0474,-0.0497,-0.0497,-0.0497,-0.0497,-0.0497,-0.0497,-0.0497,0,-0.0282,-0.0319,-0.039,-0.0416,-0.0477,-0.0531,-0.0595,-0.0628,-0.0664,-0.0677,-0.0694,-0.0674,-0.0661,-0.0627,-0.0588,-0.0516,-0.0532,-0.0466,-0.0456,-0.0517,-0.052,-0.0494,-0.0495,-0.0495,-0.0495,-0.0496,-0.0496,0,-0.0274,-0.0311,-0.0363,-0.044,-0.0477,-0.0528,-0.0619,-0.0646,-0.0681,-0.0692,-0.0694,-0.0676,-0.0622,-0.0604,-0.0545,-0.051,-0.0457,-0.0426,-0.0482,-0.0478,-0.0397,-0.04,-0.0343,-0.0341,-0.034,-0.0339,-0.0338,0,-0.0281,-0.0301,-0.0381,-0.0417,-0.0468,-0.0547,-0.0591,-0.0652,-0.065,-0.0666,-0.0636,-0.0618,-0.0594,-0.049,-0.0475,-0.0412,-0.04,-0.0376,-0.039,-0.0384,-0.0381,-0.0386,-0.0391,-0.0336,-0.0336,-0.0335,-0.0335,0,-0.0285,-0.0308,-0.0346,-0.0405,-0.0471,-0.0527,-0.0576,-0.0581,-0.061,-0.0641,-0.0569,-0.0545,-0.0487,-0.0437,-0.0409,-0.0358,-0.0401,-0.0362,-0.0365,-0.0377,-0.0376,-0.0375,-0.0381,-0.0331,-0.0331,-0.0332,-0.0332,0,-0.0288,-0.0307,-0.0341,-0.0397,-0.0456,-0.0485,-0.0529,-0.0518,-0.0532,-0.0531,-0.0493,-0.0476,-0.0465,-0.0404,-0.0363,-0.0337,-0.0318,-0.0304,-0.0309,-0.0314,-0.0335,-0.0331,-0.0253,0,0,0,0,0,-0.0295,-0.0307,-0.0336,-0.0389,-0.0427,-0.0464,-0.0496,-0.0518,-0.054,-0.0475,-0.0487,-0.0427,-0.0382,-0.0355,-0.0316,-0.0343,-0.0326,-0.0297,-0.0316,-0.0307,-0.0312,-0.0341,0,0,0,0,0,0,-0.0308,-0.0327,-0.0324,-0.0351,-0.0382,-0.0427,-0.0452,-0.0469,-0.0414,-0.0431,-0.0391,-0.0402,-0.0345,-0.0399,-0.0308,-0.0304,-0.0305,-0.0283,-0.0282,-0.0304,-0.0309,-0.0313,-0.0345,0,0,0,0,0]}]]